sat.trackr.live / text

‹ back to catalog

STARLINK-30909

NORAD 58363 · 2023-177N

PAYLOAD ACTIVE UNKNOWN

§ Identity

Operator
Country
US
Launch date
2023-11-18
Launch site
AFETR
Launch vehicle
Mass (kg)
RCS (m²)

Purposes: comms

External: N2YO · Heavens-Above · Gunter

§ Orbital elements

Epoch: 2026-09-20T06:06:40.235040Z

Period
94.27 min
Inclination
43.0065°
Eccentricity
0.0002148
Mean motion
15.27575790 rev/d
Perigee alt
481.6 km
Apogee alt
484.5 km
Semi-major
6,861.2 km
B*
1.2146e-5
RAAN
331.8063°
Arg perigee
283.3704°
Mean anomaly
76.6909°
Rev number
15,798

§ Raw data

STARLINK-309091 58363U 23177N   26263.25463235  .00000072  00000+0  12146-4 0  99902 58363  43.0065 331.8063 0002148 283.3704  76.6909 15.27575790157986

JSON: /api/v1/satellites/58363 · /tle

For live sub-satellite position, see the globe view (requires WebGL).

§ Visibility from observer

Set your observer location to see the next 7 days of passes ≥ 10°. The values pass through the URL so the page stays shareable.

No JS? Fill the form by hand. The geolocation button needs JavaScript.